• In Germany
  • List of Countries
  • For 7 days
  • Water Temperature
  • Satellite Maps
  • Weather Map
  • Weather Widgets
  • user-avatar
    Login

    Hourly Weather Kitzbuhel

    Today, 23 October, Tuesday

    Time Temperature Precipitation Wind Pressure Humidity
    00:00 +3°C° 0 mm 2 mps 683 mmHg 92%
    01:00 +4°C° 0 mm 2 mps 683 mmHg 95%
    02:00 +3°C° 0 mm 2 mps 683 mmHg 95%
    03:00 +3°C° 0 mm 2 mps 683 mmHg 95%
    04:00 +3°C° 0 mm 2 mps 683 mmHg 95%
    05:00 +3°C° 0 mm 2 mps 683 mmHg 93%
    06:00 +3°C° 0 mm 2 mps 683 mmHg 91%
    07:00 +3°C° 0 mm 2 mps 683 mmHg 89%
    08:00 +5°C° 0 mm 2 mps 683 mmHg 77%
    09:00 +8°C° 0 mm 2 mps 683 mmHg 64%
    10:00 +12°C° 0 mm 2 mps 683 mmHg 51%
    11:00 +12°C° 0 mm 2 mps 682 mmHg 47%
    12:00 +12°C° 0 mm 3 mps 682 mmHg 43%
    13:00 +13°C° 0 mm 3 mps 682 mmHg 40%
    14:00 +12°C° 0 mm 3 mps 681 mmHg 45%
    15:00 +11°C° 0 mm 3 mps 681 mmHg 51%
    16:00 +10°C° 0 mm 3 mps 680 mmHg 56%
    17:00 +9°C° 0.2 mm 3 mps 680 mmHg 62%
    18:00 +8°C° 0.2 mm 3 mps 680 mmHg 68%
    19:00 +7°C° 0.2 mm 2 mps 680 mmHg 74%
    20:00 +7°C° 0.3 mm 3 mps 680 mmHg 75%
    21:00 +7°C° 0.3 mm 3 mps 680 mmHg 77%
    22:00 +7°C° 0.3 mm 3 mps 680 mmHg 79%
    23:00 +7°C° 0.3 mm 3 mps 679 mmHg 81%

    Tomorrow, 24 October, Wednesday

    Time Temperature Precipitation Wind Pressure Humidity
    00:00 +7°C° 0.3 mm 3 mps 679 mmHg 83%
    01:00 +6°C° 0.3 mm 4 mps 679 mmHg 85%
    02:00 +6°C° 0.4 mm 4 mps 679 mmHg 87%
    03:00 +6°C° 0.4 mm 4 mps 678 mmHg 88%
    04:00 +6°C° 0.4 mm 4 mps 678 mmHg 89%
    05:00 +6°C° 1.2 mm 4 mps 678 mmHg 91%
    06:00 +7°C° 1.2 mm 4 mps 677 mmHg 92%
    07:00 +7°C° 1.2 mm 4 mps 677 mmHg 94%
    08:00 +7°C° 2 mm 4 mps 677 mmHg 94%
    09:00 +7°C° 2 mm 4 mps 677 mmHg 94%
    10:00 +7°C° 2 mm 4 mps 677 mmHg 93%
    11:00 +7°C° 2.1 mm 4 mps 677 mmHg 94%
    12:00 +7°C° 2.1 mm 4 mps 677 mmHg 94%
    13:00 +7°C° 2.1 mm 4 mps 677 mmHg 94%
    14:00 +7°C° 2 mm 4 mps 677 mmHg 95%
    15:00 +7°C° 2 mm 4 mps 677 mmHg 95%
    16:00 +8°C° 2 mm 3 mps 677 mmHg 95%
    17:00 +8°C° 1.4 mm 3 mps 678 mmHg 96%
    18:00 +8°C° 1.4 mm 3 mps 678 mmHg 96%
    19:00 +8°C° 1.4 mm 3 mps 678 mmHg 96%
    20:00 +8°C° 1.2 mm 3 mps 679 mmHg 96%
    21:00 +8°C° 1.2 mm 3 mps 679 mmHg 96%
    22:00 +8°C° 1.2 mm 3 mps 679 mmHg 97%
    23:00 +8°C° 1 mm 3 mps 679 mmHg 97%

    Day after tomorrow, 25 October, Thursday

    Time Temperature Precipitation Wind Pressure Humidity
    00:00 +8°C° 1 mm 3 mps 679 mmHg 97%
    01:00 +8°C° 1 mm 2 mps 679 mmHg 97%
    02:00 +8°C° 0.4 mm 2 mps 679 mmHg 97%
    03:00 +8°C° 0.4 mm 2 mps 679 mmHg 97%
    04:00 +8°C° 0.4 mm 2 mps 679 mmHg 97%
    05:00 +8°C° 0.1 mm 2 mps 679 mmHg 97%
    06:00 +7°C° 0.1 mm 2 mps 679 mmHg 97%
    07:00 +7°C° 0.1 mm 2 mps 679 mmHg 97%
    08:00 +8°C° 0 mm 2 mps 679 mmHg 93%
    09:00 +9°C° 0 mm 2 mps 679 mmHg 88%
    10:00 +12°C° 0 mm 2 mps 679 mmHg 84%
    11:00 +13°C° 0 mm 2 mps 679 mmHg 78%
    12:00 +14°C° 0 mm 2 mps 678 mmHg 72%
    13:00 +15°C° 0 mm 2 mps 678 mmHg 66%
    14:00 +14°C° 0 mm 2 mps 678 mmHg 69%
    15:00 +14°C° 0 mm 2 mps 678 mmHg 73%
    16:00 +13°C° 0 mm 1 mps 677 mmHg 76%
    17:00 +11°C° 0 mm 1 mps 677 mmHg 81%
    18:00 +10°C° 0 mm 1 mps 677 mmHg 86%
    19:00 +8°C° 0 mm 1 mps 677 mmHg 91%
    20:00 +8°C° 0 mm 1 mps 677 mmHg 90%
    21:00 +8°C° 0 mm 1 mps 677 mmHg 89%
    22:00 +8°C° 0 mm 1 mps 677 mmHg 88%
    23:00 +7°C° 0 mm 1 mps 676 mmHg 87%

    26 October, Friday

    Time Temperature Precipitation Wind Pressure Humidity
    00:00 +7°C° 0 mm 1 mps 676 mmHg 85%
    01:00 +7°C° 0 mm 1 mps 676 mmHg 84%
    02:00 +7°C° 0 mm 1 mps 675 mmHg 81%
    03:00 +6°C° 0 mm 1 mps 675 mmHg 79%
    04:00 +6°C° 0 mm 1 mps 674 mmHg 77%
    05:00 +6°C° 0 mm 1 mps 674 mmHg 74%
    06:00 +6°C° 0 mm 1 mps 674 mmHg 72%
    07:00 +5°C° 0 mm 1 mps 673 mmHg 70%
    08:00 +8°C° 0 mm 1 mps 674 mmHg 65%
    09:00 +10°C° 0 mm 1 mps 674 mmHg 61%
    10:00 +13°C° 0 mm 1 mps 674 mmHg 57%
    11:00 +14°C° 0 mm 1 mps 674 mmHg 55%
    12:00 +15°C° 0 mm 1 mps 674 mmHg 52%
    13:00 +15°C° 0 mm 1 mps 673 mmHg 50%
    14:00 +15°C° 0 mm 1 mps 673 mmHg 57%
    15:00 +14°C° 0 mm 1 mps 673 mmHg 63%
    16:00 +13°C° 0 mm 1 mps 672 mmHg 69%
    17:00 +11°C° 0 mm 1 mps 672 mmHg 75%
    18:00 +9°C° 0 mm 1 mps 672 mmHg 81%
    19:00 +7°C° 0 mm 1 mps 671 mmHg 87%
    20:00 +7°C° 0 mm 1 mps 671 mmHg 87%
    21:00 +7°C° 0 mm 1 mps 671 mmHg 88%
    22:00 +6°C° 0 mm 2 mps 671 mmHg 88%
    23:00 +7°C° 0 mm 1 mps 671 mmHg 88%

    27 October, Saturday

    Time Temperature Precipitation Wind Pressure Humidity
    00:00 +7°C° 0 mm 1 mps 671 mmHg 88%
    01:00 +7°C° 0 mm 1 mps 671 mmHg 89%
    02:00 +7°C° 0 mm 1 mps 671 mmHg 89%
    03:00 +7°C° 0 mm 1 mps 670 mmHg 89%
    04:00 +6°C° 0 mm 1 mps 670 mmHg 90%
    05:00 +6°C° 0.3 mm 1 mps 670 mmHg 91%
    06:00 +6°C° 0.3 mm 1 mps 670 mmHg 93%
    07:00 +6°C° 0.3 mm 1 mps 669 mmHg 94%
    08:00 +6°C° 0.9 mm 1 mps 669 mmHg 94%
    09:00 +7°C° 0.9 mm 1 mps 669 mmHg 94%
    10:00 +7°C° 0.9 mm 1 mps 669 mmHg 95%
    11:00 +7°C° 1.3 mm 1 mps 669 mmHg 95%
    12:00 +7°C° 1.3 mm 1 mps 668 mmHg 95%
    13:00 +7°C° 1.3 mm 1 mps 668 mmHg 95%
    14:00 +6°C° 1.6 mm 1 mps 668 mmHg 96%
    15:00 +6°C° 1.6 mm 1 mps 667 mmHg 96%
    16:00 +5°C° 1.6 mm 1 mps 667 mmHg 97%
    17:00 +4°C° 1.7 mm 2 mps 667 mmHg 97%
    18:00 +3°C° 1.7 mm 2 mps 667 mmHg 97%
    19:00 +3°C° 1.7 mm 2 mps 667 mmHg 97%
    20:00 +3°C° 1.8 mm 2 mps 667 mmHg 97%
    21:00 +3°C° 1.8 mm 2 mps 666 mmHg 97%
    22:00 +2°C° 1.8 mm 2 mps 666 mmHg 97%
    23:00 +2°C° 2.2 mm 2 mps 666 mmHg 97%

    28 October, Sunday

    Time Temperature Precipitation Wind Pressure Humidity
    00:00 +2°C° 2.2 mm 2 mps 665 mmHg 97%
    01:00 +2°C° 2.2 mm 2 mps 665 mmHg 97%
    02:00 +2°C° 2.5 mm 2 mps 664 mmHg 97%
    03:00 +2°C° 2.5 mm 2 mps 664 mmHg 97%
    04:00 +2°C° 2.5 mm 2 mps 663 mmHg 97%
    05:00 +2°C° 1.7 mm 2 mps 663 mmHg 97%
    06:00 +1°C° 1.7 mm 2 mps 663 mmHg 97%
    07:00 +1°C° 1.7 mm 2 mps 663 mmHg 97%
    08:00 +1°C° 2 mm 2 mps 663 mmHg 97%
    09:00 +2°C° 2 mm 2 mps 663 mmHg 97%
    10:00 +2°C° 2 mm 2 mps 663 mmHg 97%
    11:00 +2°C° 1.3 mm 2 mps 663 mmHg 97%
    12:00 +2°C° 1.3 mm 2 mps 663 mmHg 97%
    13:00 +2°C° 1.3 mm 2 mps 663 mmHg 97%
    14:00 +2°C° 1.6 mm 2 mps 662 mmHg 97%
    15:00 +2°C° 1.6 mm 2 mps 662 mmHg 97%
    16:00 +2°C° 1.6 mm 2 mps 662 mmHg 97%
    17:00 +2°C° 1.1 mm 2 mps 662 mmHg 97%
    18:00 +1°C° 1.1 mm 2 mps 662 mmHg 98%
    19:00 +1°C° 1.1 mm 2 mps 662 mmHg 98%
    20:00 +1°C° 1.4 mm 2 mps 662 mmHg 98%
    21:00 +1°C° 1.4 mm 2 mps 662 mmHg 98%
    22:00 +2°C° 1.4 mm 1 mps 662 mmHg 98%
    23:00 +2°C° 1.2 mm 1 mps 662 mmHg 98%

    29 October, Monday

    Time Temperature Precipitation Wind Pressure Humidity
    00:00 +1°C° 1.2 mm 1 mps 661 mmHg 98%
    01:00 +1°C° 1.2 mm 1 mps 661 mmHg 98%
    02:00 +1°C° 0.8 mm 1 mps 661 mmHg 98%
    03:00 +1°C° 0.8 mm 1 mps 661 mmHg 98%
    04:00 +1°C° 0.8 mm 1 mps 660 mmHg 98%
    05:00 +1°C° 0.5 mm 1 mps 660 mmHg 98%
    06:00 -2°C° 0.5 mm 2 mps 660 mmHg 98%
    07:00 -2°C° 0.5 mm 2 mps 660 mmHg 98%
    08:00 -2°C° 0.8 mm 2 mps 660 mmHg 98%
    09:00 -1°C° 0.8 mm 2 mps 660 mmHg 98%
    10:00 -1°C° 0.8 mm 2 mps 661 mmHg 98%
    11:00 -1°C° 0.9 mm 2 mps 661 mmHg 98%
    12:00 -1°C° 0.9 mm 2 mps 661 mmHg 98%
    13:00 -1°C° 0.9 mm 2 mps 661 mmHg 98%
    14:00 -1°C° 0.9 mm 2 mps 661 mmHg 98%
    15:00 -1°C° 0.9 mm 2 mps 661 mmHg 98%
    16:00 -1°C° 0.9 mm 2 mps 661 mmHg 98%
    17:00 -2°C° 0.6 mm 2 mps 661 mmHg 98%
    18:00 -2°C° 0.6 mm 2 mps 661 mmHg 98%
    19:00 -1°C° 0.6 mm 1 mps 662 mmHg 98%
    20:00 -1°C° 0.2 mm 1 mps 662 mmHg 98%
    21:00 -1°C° 0.2 mm 1 mps 662 mmHg 98%
    22:00 -2°C° 0.2 mm 1 mps 663 mmHg 97%
    23:00 -2°C° 0.1 mm 1 mps 663 mmHg 97%
    Show more